Wetterdaten: Montag, 08.07.2013
Datum Zeit Temperatur Luftfeuchte Luftdruck Regen Wind Richtung Richtung Taupunkt Windchill Windben
08.07.2013 00:00 14,0 C 85 % 1028,9 hPa 0,0 l/m 0,0 km/h (0 Bft) NO 45 11,5 C 13,6 C 0,0 km/h (0 Bft)
08.07.2013 00:05 13,9 C 86 % 1028,9 hPa 0,0 l/m 0,0 km/h (0 Bft) NO 45 11,6 C 13,6 C 0,0 km/h (0 Bft)
08.07.2013 00:10 13,9 C 86 % 1028,9 hPa 0,0 l/m 0,0 km/h (0 Bft) NO 45 11,6 C 13,6 C 0,0 km/h (0 Bft)
08.07.2013 00:15 14,0 C 86 % 1028,9 hPa 0,0 l/m 0,0 km/h (0 Bft) NO 45 11,7 C 13,6 C 0,0 km/h (0 Bft)
08.07.2013 00:20 14,0 C 86 % 1028,9 hPa 0,0 l/m 0,0 km/h (0 Bft) NO 45 11,7 C 13,7 C 0,0 km/h (0 Bft)
08.07.2013 00:25 14,3 C 87 % 1028,9 hPa 0,0 l/m 0,2 km/h (0 Bft) NO 45 12,2 C 13,7 C 2,3 km/h (1 Bft)
08.07.2013 00:30 14,5 C 87 % 1028,9 hPa 0,0 l/m 0,3 km/h (0 Bft) NO 45 12,4 C 13,7 C 0,0 km/h (0 Bft)
08.07.2013 00:35 14,4 C 87 % 1028,9 hPa 0,0 l/m 0,6 km/h (0 Bft) NO 45 12,3 C 13,7 C 2,1 km/h (1 Bft)
08.07.2013 00:40 14,0 C 87 % 1028,9 hPa 0,0 l/m 0,3 km/h (0 Bft) NO 45 11,9 C 13,6 C 2,4 km/h (1 Bft)
08.07.2013 00:45 13,7 C 87 % 1028,9 hPa 0,0 l/m 0,3 km/h (0 Bft) NO 45 11,6 C 13,4 C 0,0 km/h (0 Bft)
08.07.2013 00:50 13,5 C 87 % 1028,9 hPa 0,0 l/m 0,2 km/h (0 Bft) NO 45 11,4 C 13,3 C 0,0 km/h (0 Bft)
08.07.2013 00:55 13,5 C 87 % 1028,9 hPa 0,0 l/m 0,0 km/h (0 Bft) NO 45 11,4 C 13,1 C 0,0 km/h (0 Bft)
08.07.2013 01:00 13,5 C 87 % 1028,9 hPa 0,0 l/m 0,0 km/h (0 Bft) N-NO 22 11,4 C 13,1 C 0,0 km/h (0 Bft)
08.07.2013 01:05 13,3 C 87 % 1028,6 hPa 0,0 l/m 0,0 km/h (0 Bft) NO 45 11,2 C 13,0 C 0,0 km/h (0 Bft)
08.07.2013 01:10 13,1 C 87 % 1028,6 hPa 0,0 l/m 0,0 km/h (0 Bft) NO 45 11,0 C 12,8 C 0,0 km/h (0 Bft)
08.07.2013 01:15 13,1 C 87 % 1028,6 hPa 0,0 l/m 0,0 km/h (0 Bft) NO 45 11,0 C 12,8 C 0,0 km/h (0 Bft)
08.07.2013 01:20 13,1 C 88 % 1028,6 hPa 0,0 l/m 0,0 km/h (0 Bft) NO 45 11,2 C 12,8 C 0,0 km/h (0 Bft)
08.07.2013 01:25 12,9 C 88 % 1028,8 hPa 0,0 l/m 0,0 km/h (0 Bft) NO 45 11,0 C 12,7 C 0,0 km/h (0 Bft)
08.07.2013 01:30 13,1 C 88 % 1028,8 hPa 0,0 l/m 0,0 km/h (0 Bft) NO 45 11,2 C 12,6 C 0,0 km/h (0 Bft)
08.07.2013 01:35 13,0 C 88 % 1028,8 hPa 0,0 l/m 0,0 km/h (0 Bft) NO 45 11,1 C 12,7 C 0,0 km/h (0 Bft)
08.07.2013 01:40 13,1 C 89 % 1028,8 hPa 0,0 l/m 0,0 km/h (0 Bft) NO 45 11,3 C 12,7 C 0,0 km/h (0 Bft)
08.07.2013 01:45 13,4 C 89 % 1028,8 hPa 0,0 l/m 0,3 km/h (0 Bft) NO 45 11,6 C 12,7 C 0,0 km/h (0 Bft)
08.07.2013 01:50 13,3 C 89 % 1028,8 hPa 0,0 l/m 0,6 km/h (0 Bft) NO 45 11,5 C 12,7 C 2,9 km/h (1 Bft)
08.07.2013 01:55 13,3 C 89 % 1028,8 hPa 0,0 l/m 0,5 km/h (0 Bft) NO 45 11,5 C 12,8 C 1,6 km/h (1 Bft)
08.07.2013 02:00 13,4 C 90 % 1028,8 hPa 0,0 l/m 0,3 km/h (0 Bft) NO 45 11,8 C 12,8 C 2,9 km/h (1 Bft)
08.07.2013 02:05 13,2 C 89 % 1028,8 hPa 0,0 l/m 0,3 km/h (0 Bft) NO 45 11,4 C 12,7 C 0,0 km/h (0 Bft)
08.07.2013 02:10 12,6 C 89 % 1028,8 hPa 0,0 l/m 0,3 km/h (0 Bft) NO 45 10,8 C 12,5 C 0,0 km/h (0 Bft)
08.07.2013 02:15 12,5 C 89 % 1028,8 hPa 0,0 l/m 0,0 km/h (0 Bft) NO 45 10,7 C 12,4 C 0,0 km/h (0 Bft)
08.07.2013 02:20 13,0 C 89 % 1028,8 hPa 0,0 l/m 0,0 km/h (0 Bft) NO 45 11,2 C 12,3 C 0,0 km/h (0 Bft)
08.07.2013 02:25 12,7 C 90 % 1028,6 hPa 0,0 l/m 0,0 km/h (0 Bft) NO 45 11,1 C 12,4 C 0,0 km/h (0 Bft)
08.07.2013 02:30 12,4 C 90 % 1028,6 hPa 0,0 l/m 0,0 km/h (0 Bft) NO 45 10,8 C 12,2 C 0,0 km/h (0 Bft)
08.07.2013 02:35 12,2 C 90 % 1028,6 hPa 0,0 l/m 0,0 km/h (0 Bft) NO 45 10,6 C 12,1 C 0,0 km/h (0 Bft)
08.07.2013 02:40 12,2 C 90 % 1028,6 hPa 0,0 l/m 0,0 km/h (0 Bft) NO 45 10,6 C 11,9 C 0,0 km/h (0 Bft)
08.07.2013 02:45 12,2 C 90 % 1028,6 hPa 0,0 l/m 0,0 km/h (0 Bft) N-NO 22 10,6 C 11,8 C 0,0 km/h (0 Bft)
08.07.2013 02:50 12,3 C 90 % 1028,6 hPa 0,0 l/m 0,0 km/h (0 Bft) NO 45 10,7 C 11,8 C 0,0 km/h (0 Bft)
08.07.2013 02:55 12,4 C 91 % 1028,6 hPa 0,0 l/m 0,0 km/h (0 Bft) NO 45 11,0 C 11,9 C 0,0 km/h (0 Bft)
08.07.2013 03:00 12,3 C 91 % 1028,6 hPa 0,0 l/m 0,0 km/h (0 Bft) N-NO 22 10,9 C 12,0 C 0,0 km/h (0 Bft)
08.07.2013 03:05 12,2 C 91 % 1028,2 hPa 0,0 l/m 0,0 km/h (0 Bft) NO 45 10,8 C 12,0 C 0,0 km/h (0 Bft)
08.07.2013 03:10 12,1 C 91 % 1028,2 hPa 0,0 l/m 0,2 km/h (0 Bft) NO 45 10,7 C 11,9 C 0,0 km/h (0 Bft)
08.07.2013 03:15 12,1 C 91 % 1028,2 hPa 0,0 l/m 0,0 km/h (0 Bft) NO 45 10,7 C 11,8 C 0,0 km/h (0 Bft)
08.07.2013 03:20 12,0 C 91 % 1028,2 hPa 0,0 l/m 0,0 km/h (0 Bft) NO 45 10,6 C 11,6 C 0,0 km/h (0 Bft)
08.07.2013 03:25 12,2 C 91 % 1028,2 hPa 0,0 l/m 0,0 km/h (0 Bft) NO 45 10,8 C 11,6 C 0,0 km/h (0 Bft)
08.07.2013 03:30 11,9 C 91 % 1028,2 hPa 0,0 l/m 0,0 km/h (0 Bft) N-NO 22 10,5 C 11,6 C 0,0 km/h (0 Bft)
08.07.2013 03:35 11,7 C 91 % 1028,2 hPa 0,0 l/m 0,0 km/h (0 Bft) NO 45 10,3 C 11,6 C 0,0 km/h (0 Bft)
08.07.2013 03:40 11,6 C 91 % 1028,2 hPa 0,0 l/m 0,0 km/h (0 Bft) NO 45 10,2 C 11,4 C 0,0 km/h (0 Bft)
08.07.2013 03:45 11,7 C 91 % 1028,1 hPa 0,0 l/m 0,0 km/h (0 Bft) NO 45 10,3 C 11,4 C 0,0 km/h (0 Bft)
08.07.2013 03:50 12,1 C 91 % 1028,1 hPa 0,0 l/m 0,0 km/h (0 Bft) NO 45 10,7 C 11,4 C 0,0 km/h (0 Bft)
08.07.2013 03:55 11,9 C 91 % 1028,1 hPa 0,0 l/m 0,0 km/h (0 Bft) NO 45 10,5 C 11,6 C 0,0 km/h (0 Bft)
08.07.2013 04:00 11,7 C 91 % 1028,1 hPa 0,0 l/m 0,0 km/h (0 Bft) NO 45 10,3 C 11,4 C 0,0 km/h (0 Bft)
08.07.2013 04:05 12,1 C 91 % 1028,2 hPa 0,0 l/m 0,0 km/h (0 Bft) NO 45 10,7 C 11,5 C 0,0 km/h (0 Bft)
08.07.2013 04:10 12,3 C 92 % 1028,2 hPa 0,0 l/m 0,0 km/h (0 Bft) NO 45 11,0 C 11,6 C 0,0 km/h (0 Bft)
08.07.2013 04:15 11,9 C 92 % 1028,2 hPa 0,0 l/m 0,0 km/h (0 Bft) NO 45 10,6 C 11,6 C 0,0 km/h (0 Bft)
08.07.2013 04:20 12,6 C 92 % 1028,2 hPa 0,0 l/m 0,6 km/h (0 Bft) NO 45 11,3 C 11,9 C 0,0 km/h (0 Bft)
08.07.2013 04:25 11,7 C 92 % 1028,1 hPa 0,0 l/m 0,6 km/h (0 Bft) NO 45 10,4 C 11,8 C 0,0 km/h (0 Bft)
08.07.2013 04:30 11,7 C 92 % 1028,1 hPa 0,0 l/m 0,0 km/h (0 Bft) NO 45 10,4 C 11,6 C 0,0 km/h (0 Bft)
08.07.2013 04:35 11,5 C 92 % 1028,1 hPa 0,0 l/m 0,0 km/h (0 Bft) NO 45 10,2 C 11,5 C 0,0 km/h (0 Bft)
08.07.2013 04:40 11,5 C 92 % 1028,1 hPa 0,0 l/m 0,0 km/h (0 Bft) N-NO 22 10,2 C 11,3 C 0,0 km/h (0 Bft)
08.07.2013 04:45 11,4 C 92 % 1028,1 hPa 0,0 l/m 0,0 km/h (0 Bft) NO 45 10,1 C 11,1 C 0,0 km/h (0 Bft)
08.07.2013 04:50 11,4 C 92 % 1028,1 hPa 0,0 l/m 0,0 km/h (0 Bft) NO 45 10,1 C 11,1 C 0,0 km/h (0 Bft)
08.07.2013 04:55 11,3 C 92 % 1028,1 hPa 0,0 l/m 0,0 km/h (0 Bft) NO 45 10,0 C 11,1 C 0,0 km/h (0 Bft)
08.07.2013 05:00 11,3 C 92 % 1028,1 hPa 0,0 l/m 0,0 km/h (0 Bft) NO 45 10,0 C 11,2 C 0,0 km/h (0 Bft)
08.07.2013 05:05 11,4 C 92 % 1027,9 hPa 0,0 l/m 0,0 km/h (0 Bft) NO 45 10,1 C 11,3 C 0,0 km/h (0 Bft)
08.07.2013 05:10 11,7 C 92 % 1027,9 hPa 0,0 l/m 0,0 km/h (0 Bft) NO 45 10,4 C 11,4 C 0,0 km/h (0 Bft)
08.07.2013 05:15 11,8 C 92 % 1027,9 hPa 0,0 l/m 0,0 km/h (0 Bft) N-NO 22 10,5 C 11,6 C 0,0 km/h (0 Bft)
08.07.2013 05:20 11,9 C 92 % 1027,9 hPa 0,0 l/m 0,0 km/h (0 Bft) NO 45 10,6 C 11,8 C 0,0 km/h (0 Bft)
08.07.2013 05:25 12,1 C 92 % 1027,9 hPa 0,0 l/m 0,0 km/h (0 Bft) NO 45 10,8 C 11,8 C 0,0 km/h (0 Bft)
08.07.2013 05:30 12,3 C 92 % 1027,9 hPa 0,0 l/m 0,0 km/h (0 Bft) NO 45 11,0 C 12,1 C 0,0 km/h (0 Bft)
08.07.2013 05:35 12,3 C 92 % 1027,9 hPa 0,0 l/m 0,0 km/h (0 Bft) NO 45 11,0 C 12,1 C 0,0 km/h (0 Bft)
08.07.2013 05:40 12,5 C 92 % 1027,9 hPa 0,0 l/m 0,2 km/h (0 Bft) NO 45 11,2 C 12,3 C 2,1 km/h (1 Bft)
08.07.2013 05:45 12,6 C 92 % 1027,9 hPa 0,0 l/m 0,2 km/h (0 Bft) NO 45 11,3 C 12,4 C 0,0 km/h (0 Bft)
08.07.2013 05:50 12,9 C 93 % 1027,9 hPa 0,0 l/m 0,3 km/h (0 Bft) N-NO 22 11,8 C 12,5 C 3,2 km/h (1 Bft)
08.07.2013 05:55 13,3 C 92 % 1027,9 hPa 0,0 l/m 0,2 km/h (0 Bft) N-NO 22 12,0 C 12,8 C 0,0 km/h (0 Bft)
08.07.2013 06:00 13,8 C 92 % 1027,9 hPa 0,0 l/m 0,6 km/h (0 Bft) N-NO 22 12,5 C 13,3 C 7,4 km/h (2 Bft)
08.07.2013 06:05 13,7 C 92 % 1027,9 hPa 0,0 l/m 0,8 km/h (0 Bft) N-NO 22 12,4 C 13,7 C 0,0 km/h (0 Bft)
08.07.2013 06:10 13,9 C 92 % 1027,9 hPa 0,0 l/m 0,5 km/h (0 Bft) NO 45 12,6 C 13,9 C 0,0 km/h (0 Bft)
08.07.2013 06:15 14,1 C 92 % 1027,9 hPa 0,0 l/m 0,6 km/h (0 Bft) N 360 12,8 C 13,9 C 2,7 km/h (1 Bft)
08.07.2013 06:20 14,4 C 92 % 1027,9 hPa 0,0 l/m 1,4 km/h (1 Bft) NO 45 13,1 C 14,2 C 2,1 km/h (1 Bft)
08.07.2013 06:25 14,5 C 92 % 1028,1 hPa 0,0 l/m 1,8 km/h (1 Bft) N-NO 22 13,2 C 14,3 C 2,4 km/h (1 Bft)
08.07.2013 06:30 14,7 C 93 % 1028,1 hPa 0,0 l/m 1,4 km/h (1 Bft) NO 45 13,6 C 14,5 C 2,6 km/h (1 Bft)
08.07.2013 06:35 14,7 C 92 % 1028,1 hPa 0,0 l/m 1,0 km/h (0 Bft) N-NO 22 13,4 C 14,5 C 1,6 km/h (1 Bft)
08.07.2013 06:40 14,8 C 92 % 1028,1 hPa 0,0 l/m 0,2 km/h (0 Bft) NO 45 13,5 C 14,6 C 0,0 km/h (0 Bft)
08.07.2013 06:45 14,9 C 92 % 1028,2 hPa 0,0 l/m 0,2 km/h (0 Bft) N-NO 22 13,6 C 14,7 C 0,0 km/h (0 Bft)
08.07.2013 06:50 14,9 C 92 % 1028,2 hPa 0,0 l/m 1,0 km/h (0 Bft) N-NO 22 13,6 C 14,7 C 0,0 km/h (0 Bft)
08.07.2013 06:55 15,0 C 92 % 1028,2 hPa 0,0 l/m 1,8 km/h (1 Bft) N-NO 22 13,7 C 14,7 C 2,9 km/h (1 Bft)
08.07.2013 07:00 15,0 C 91 % 1028,2 hPa 0,0 l/m 1,9 km/h (1 Bft) N 360 13,5 C 14,7 C 3,1 km/h (1 Bft)
08.07.2013 07:05 15,1 C 91 % 1028,3 hPa 0,0 l/m 2,1 km/h (1 Bft) N 360 13,6 C 14,7 C 2,3 km/h (1 Bft)
08.07.2013 07:10 15,1 C 90 % 1028,3 hPa 0,0 l/m 2,7 km/h (1 Bft) N-NO 22 13,5 C 14,7 C 2,7 km/h (1 Bft)
08.07.2013 07:15 15,1 C 90 % 1028,3 hPa 0,0 l/m 2,6 km/h (1 Bft) N-NW 337 13,5 C 14,7 C 4,7 km/h (1 Bft)
08.07.2013 07:20 15,2 C 89 % 1028,3 hPa 0,0 l/m 1,9 km/h (1 Bft) NO 45 13,4 C 14,7 C 2,7 km/h (1 Bft)
08.07.2013 07:25 15,1 C 89 % 1028,5 hPa 0,0 l/m 1,9 km/h (1 Bft) O-NO 67 13,3 C 14,7 C 3,9 km/h (1 Bft)
08.07.2013 07:30 15,2 C 88 % 1028,5 hPa 0,0 l/m 2,3 km/h (1 Bft) N 360 13,2 C 14,8 C 4,0 km/h (1 Bft)
08.07.2013 07:35 15,3 C 88 % 1028,5 hPa 0,0 l/m 2,7 km/h (1 Bft) N-NW 337 13,3 C 14,8 C 3,2 km/h (1 Bft)
08.07.2013 07:40 15,3 C 88 % 1028,5 hPa 0,0 l/m 1,8 km/h (1 Bft) S 180 13,3 C 15,0 C 0,0 km/h (0 Bft)
08.07.2013 07:45 15,3 C 88 % 1028,8 hPa 0,0 l/m 1,0 km/h (0 Bft) N 360 13,3 C 15,1 C 3,9 km/h (1 Bft)
08.07.2013 07:50 15,4 C 88 % 1028,8 hPa 0,0 l/m 2,4 km/h (1 Bft) W-NW 292 13,4 C 15,2 C 7,6 km/h (2 Bft)
08.07.2013 07:55 15,2 C 87 % 1028,8 hPa 0,0 l/m 3,5 km/h (1 Bft) NW 315 13,0 C 15,2 C 1,9 km/h (1 Bft)
08.07.2013 08:00 15,3 C 87 % 1028,8 hPa 0,0 l/m 3,2 km/h (1 Bft) N-NW 337 13,1 C 15,3 C 2,9 km/h (1 Bft)
08.07.2013 08:05 15,5 C 87 % 1028,3 hPa 0,0 l/m 2,1 km/h (1 Bft) NW 315 13,3 C 15,5 C 3,2 km/h (1 Bft)
08.07.2013 08:10 15,4 C 87 % 1028,3 hPa 0,0 l/m 2,1 km/h (1 Bft) N 360 13,2 C 15,7 C 6,1 km/h (2 Bft)
08.07.2013 08:15 15,4 C 87 % 1028,3 hPa 0,0 l/m 2,7 km/h (1 Bft) NO 45 13,2 C 15,7 C 3,9 km/h (1 Bft)
08.07.2013 08:20 15,4 C 87 % 1028,3 hPa 0,0 l/m 3,5 km/h (1 Bft) N-NW 337 13,2 C 15,8 C 3,9 km/h (1 Bft)
08.07.2013 08:25 15,5 C 87 % 1028,5 hPa 0,0 l/m 2,9 km/h (1 Bft) N-NW 337 13,3 C 15,9 C 0,0 km/h (0 Bft)
08.07.2013 08:30 15,6 C 86 % 1028,5 hPa 0,0 l/m 3,1 km/h (1 Bft) N-NW 337 13,3 C 16,1 C 4,7 km/h (1 Bft)
08.07.2013 08:35 15,6 C 86 % 1028,5 hPa 0,0 l/m 2,7 km/h (1 Bft) N 360 13,3 C 16,1 C 5,1 km/h (1 Bft)
08.07.2013 08:40 16,0 C 86 % 1028,5 hPa 0,0 l/m 1,9 km/h (1 Bft) W 270 13,7 C 16,3 C 0,0 km/h (0 Bft)
08.07.2013 08:45 16,2 C 86 % 1028,8 hPa 0,0 l/m 1,9 km/h (1 Bft) W-NW 292 13,9 C 16,5 C 3,1 km/h (1 Bft)
08.07.2013 08:50 16,5 C 85 % 1028,8 hPa 0,0 l/m 2,4 km/h (1 Bft) W-NW 292 14,0 C 16,7 C 6,1 km/h (2 Bft)
08.07.2013 08:55 16,5 C 84 % 1028,8 hPa 0,0 l/m 2,6 km/h (1 Bft) N-NO 22 13,8 C 16,9 C 1,8 km/h (1 Bft)
08.07.2013 09:00 16,8 C 84 % 1028,8 hPa 0,0 l/m 1,9 km/h (1 Bft) W-NW 292 14,1 C 17,3 C 3,2 km/h (1 Bft)
08.07.2013 09:05 17,0 C 83 % 1028,7 hPa 0,0 l/m 1,6 km/h (1 Bft) W 270 14,1 C 17,5 C 3,1 km/h (1 Bft)
08.07.2013 09:10 17,2 C 81 % 1028,7 hPa 0,0 l/m 1,9 km/h (1 Bft) W-NW 292 13,9 C 17,9 C 0,0 km/h (0 Bft)
08.07.2013 09:15 17,7 C 81 % 1028,7 hPa 0,0 l/m 1,4 km/h (1 Bft) W-SW 247 14,4 C 18,3 C 0,0 km/h (0 Bft)
08.07.2013 09:20 17,7 C 79 % 1028,7 hPa 0,0 l/m 1,8 km/h (1 Bft) W-NW 292 14,0 C 18,9 C 4,2 km/h (1 Bft)
08.07.2013 09:25 19,0 C 78 % 1029,4 hPa 0,0 l/m 2,3 km/h (1 Bft) W-NW 292 15,1 C 19,7 C 2,3 km/h (1 Bft)
08.07.2013 09:30 17,8 C 76 % 1029,4 hPa 0,0 l/m 2,4 km/h (1 Bft) N-NO 22 13,5 C 20,2 C 2,3 km/h (1 Bft)
08.07.2013 09:35 19,1 C 76 % 1029,4 hPa 0,0 l/m 3,1 km/h (1 Bft) N-NW 337 14,8 C 20,0 C 4,2 km/h (1 Bft)
08.07.2013 09:40 20,1 C 74 % 1029,4 hPa 0,0 l/m 2,6 km/h (1 Bft) W 270 15,3 C 19,9 C 5,1 km/h (1 Bft)
08.07.2013 09:45 18,9 C 73 % 1029,4 hPa 0,0 l/m 3,1 km/h (1 Bft) NW 315 13,9 C 20,0 C 4,5 km/h (1 Bft)
08.07.2013 09:50 18,4 C 74 % 1029,4 hPa 0,0 l/m 3,9 km/h (1 Bft) N 360 13,7 C 19,6 C 9,2 km/h (2 Bft)
08.07.2013 09:55 19,5 C 75 % 1029,4 hPa 0,0 l/m 3,5 km/h (1 Bft) N-NW 337 14,9 C 19,4 C 0,0 km/h (0 Bft)
08.07.2013 10:00 20,6 C 69 % 1029,4 hPa 0,0 l/m 3,5 km/h (1 Bft) N 360 14,7 C 20,6 C 6,3 km/h (2 Bft)
08.07.2013 10:05 19,9 C 71 % 1029,3 hPa 0,0 l/m 3,4 km/h (1 Bft) W-NW 292 14,5 C 21,1 C 4,3 km/h (1 Bft)
08.07.2013 10:10 18,9 C 73 % 1029,3 hPa 0,0 l/m 3,2 km/h (1 Bft) N-NW 337 13,9 C 21,0 C 2,4 km/h (1 Bft)
08.07.2013 10:15 18,4 C 74 % 1029,3 hPa 0,0 l/m 3,4 km/h (1 Bft) W 270 13,7 C 20,6 C 3,9 km/h (1 Bft)
08.07.2013 10:20 19,1 C 74 % 1029,3 hPa 0,0 l/m 3,9 km/h (1 Bft) W-NW 292 14,4 C 20,1 C 4,0 km/h (1 Bft)
08.07.2013 10:25 18,6 C 74 % 1029,4 hPa 0,0 l/m 5,1 km/h (1 Bft) W-NW 292 13,9 C 19,8 C 7,9 km/h (2 Bft)
08.07.2013 10:30 18,6 C 75 % 1029,4 hPa 0,0 l/m 5,5 km/h (1 Bft) W-NW 292 14,1 C 19,3 C 10,1 km/h (2 Bft)
08.07.2013 10:35 18,4 C 75 % 1029,4 hPa 0,0 l/m 4,3 km/h (1 Bft) NO 45 13,9 C 19,5 C 5,8 km/h (2 Bft)
08.07.2013 10:40 18,3 C 76 % 1029,4 hPa 0,0 l/m 3,5 km/h (1 Bft) NW 315 14,0 C 19,5 C 0,0 km/h (0 Bft)
08.07.2013 10:45 18,5 C 76 % 1029,5 hPa 0,0 l/m 3,1 km/h (1 Bft) N-NW 337 14,2 C 19,7 C 6,1 km/h (2 Bft)
08.07.2013 10:50 18,8 C 76 % 1029,5 hPa 0,0 l/m 3,1 km/h (1 Bft) W-NW 292 14,5 C 20,0 C 6,6 km/h (2 Bft)
08.07.2013 10:55 18,9 C 76 % 1029,5 hPa 0,0 l/m 4,3 km/h (1 Bft) N 360 14,6 C 20,2 C 5,1 km/h (1 Bft)
08.07.2013 11:00 19,6 C 75 % 1029,5 hPa 0,0 l/m 4,8 km/h (1 Bft) N-NW 337 15,0 C 20,4 C 8,7 km/h (2 Bft)
08.07.2013 11:05 19,5 C 73 % 1029,6 hPa 0,0 l/m 5,0 km/h (1 Bft) S-SW 202 14,5 C 20,7 C 3,9 km/h (1 Bft)
08.07.2013 11:10 20,2 C 73 % 1029,6 hPa 0,0 l/m 4,7 km/h (1 Bft) N-NW 337 15,2 C 20,9 C 4,5 km/h (1 Bft)
08.07.2013 11:15 20,4 C 70 % 1029,6 hPa 0,0 l/m 3,9 km/h (1 Bft) N 360 14,7 C 21,8 C 5,8 km/h (2 Bft)
08.07.2013 11:20 19,8 C 72 % 1029,6 hPa 0,0 l/m 3,7 km/h (1 Bft) W-NW 292 14,6 C 21,6 C 13,0 km/h (3 Bft)
08.07.2013 11:25 21,2 C 68 % 1029,6 hPa 0,0 l/m 4,2 km/h (1 Bft) N 360 15,1 C 21,8 C 8,0 km/h (2 Bft)
08.07.2013 11:30 22,8 C 63 % 1029,6 hPa 0,0 l/m 4,5 km/h (1 Bft) N-NW 337 15,4 C 22,7 C 5,3 km/h (1 Bft)
08.07.2013 11:35 22,8 C 62 % 1029,6 hPa 0,0 l/m 4,8 km/h (1 Bft) N-NO 22 15,1 C 23,5 C 7,9 km/h (2 Bft)
08.07.2013 11:40 22,3 C 62 % 1029,6 hPa 0,0 l/m 6,0 km/h (2 Bft) N-NW 337 14,7 C 23,7 C 10,6 km/h (2 Bft)
08.07.2013 11:45 23,0 C 60 % 1029,6 hPa 0,0 l/m 6,0 km/h (2 Bft) N-NW 337 14,8 C 23,8 C 4,3 km/h (1 Bft)
08.07.2013 11:50 23,2 C 59 % 1029,6 hPa 0,0 l/m 4,5 km/h (1 Bft) W-NW 292 14,7 C 24,6 C 5,3 km/h (1 Bft)
08.07.2013 11:55 23,1 C 59 % 1029,6 hPa 0,0 l/m 3,7 km/h (1 Bft) N 360 14,6 C 25,3 C 8,5 km/h (2 Bft)
08.07.2013 12:00 23,4 C 62 % 1029,6 hPa 0,0 l/m 4,5 km/h (1 Bft) W 270 15,7 C 24,4 C 4,3 km/h (1 Bft)
08.07.2013 12:05 23,0 C 60 % 1029,6 hPa 0,0 l/m 4,2 km/h (1 Bft) NW 315 14,8 C 24,4 C 6,0 km/h (2 Bft)
08.07.2013 12:10 21,7 C 66 % 1029,6 hPa 0,0 l/m 4,3 km/h (1 Bft) O 90 15,1 C 23,8 C 4,2 km/h (1 Bft)
08.07.2013 12:15 21,2 C 66 % 1029,6 hPa 0,0 l/m 5,0 km/h (1 Bft) W-NW 292 14,6 C 23,2 C 7,2 km/h (2 Bft)
08.07.2013 12:20 21,1 C 68 % 1029,6 hPa 0,0 l/m 5,0 km/h (1 Bft) W-SW 247 15,0 C 22,4 C 2,7 km/h (1 Bft)
08.07.2013 12:25 21,5 C 67 % 1029,6 hPa 0,0 l/m 4,3 km/h (1 Bft) O-SO 112 15,1 C 22,5 C 3,2 km/h (1 Bft)
08.07.2013 12:30 21,3 C 68 % 1029,6 hPa 0,0 l/m 3,5 km/h (1 Bft) N-NW 337 15,1 C 22,8 C 8,0 km/h (2 Bft)
08.07.2013 12:35 21,4 C 68 % 1029,6 hPa 0,0 l/m 4,2 km/h (1 Bft) W-NW 292 15,2 C 22,7 C 5,8 km/h (2 Bft)
08.07.2013 12:40 21,9 C 68 % 1029,6 hPa 0,0 l/m 5,0 km/h (1 Bft) N 360 15,7 C 23,4 C 6,6 km/h (2 Bft)
08.07.2013 12:45 21,7 C 67 % 1029,5 hPa 0,0 l/m 4,7 km/h (1 Bft) O-NO 67 15,3 C 23,2 C 0,0 km/h (0 Bft)
08.07.2013 12:50 22,3 C 64 % 1029,5 hPa 0,0 l/m 4,5 km/h (1 Bft) W-NW 292 15,2 C 23,6 C 5,8 km/h (2 Bft)
08.07.2013 12:55 22,0 C 65 % 1029,5 hPa 0,0 l/m 4,3 km/h (1 Bft) W-SW 247 15,1 C 23,5 C 6,6 km/h (2 Bft)
08.07.2013 13:00 22,3 C 63 % 1029,5 hPa 0,0 l/m 5,3 km/h (1 Bft) N-NW 337 14,9 C 23,3 C 4,3 km/h (1 Bft)
08.07.2013 13:05 22,5 C 62 % 1029,4 hPa 0,0 l/m 5,6 km/h (1 Bft) N 360 14,8 C 23,6 C 9,2 km/h (2 Bft)
08.07.2013 13:10 21,9 C 65 % 1029,4 hPa 0,0 l/m 6,1 km/h (2 Bft) N 360 15,0 C 23,4 C 15,3 km/h (3 Bft)
08.07.2013 13:15 21,8 C 65 % 1029,4 hPa 0,0 l/m 6,0 km/h (2 Bft) N 360 14,9 C 23,2 C 6,3 km/h (2 Bft)
08.07.2013 13:20 21,9 C 65 % 1029,4 hPa 0,0 l/m 5,1 km/h (1 Bft) N 360 15,0 C 23,3 C 8,5 km/h (2 Bft)
08.07.2013 13:25 22,3 C 65 % 1029,3 hPa 0,0 l/m 4,7 km/h (1 Bft) NW 315 15,4 C 23,4 C 5,5 km/h (1 Bft)
08.07.2013 13:30 22,9 C 62 % 1029,3 hPa 0,0 l/m 5,1 km/h (1 Bft) NW 315 15,2 C 24,0 C 9,3 km/h (2 Bft)
08.07.2013 13:35 23,8 C 57 % 1029,3 hPa 0,0 l/m 5,6 km/h (1 Bft) W 270 14,8 C 24,6 C 6,4 km/h (2 Bft)
08.07.2013 13:40 23,9 C 56 % 1029,3 hPa 0,0 l/m 6,3 km/h (2 Bft) W-NW 292 14,6 C 25,5 C 6,8 km/h (2 Bft)
08.07.2013 13:45 22,6 C 59 % 1029,8 hPa 0,0 l/m 7,1 km/h (2 Bft) N-NW 337 14,2 C 24,7 C 11,1 km/h (2 Bft)
08.07.2013 13:50 22,0 C 61 % 1029,8 hPa 0,0 l/m 7,4 km/h (2 Bft) W-NW 292 14,1 C 23,4 C 20,9 km/h (4 Bft)
08.07.2013 13:55 22,2 C 63 % 1029,8 hPa 0,0 l/m 6,9 km/h (2 Bft) N 360 14,8 C 23,4 C 2,6 km/h (1 Bft)
08.07.2013 14:00 22,6 C 60 % 1029,8 hPa 0,0 l/m 6,4 km/h (2 Bft) N-NO 22 14,4 C 23,8 C 10,0 km/h (2 Bft)
08.07.2013 14:05 22,7 C 61 % 1029,2 hPa 0,0 l/m 6,3 km/h (2 Bft) N-NW 337 14,8 C 23,7 C 4,8 km/h (1 Bft)
08.07.2013 14:10 24,2 C 57 % 1029,2 hPa 0,0 l/m 6,3 km/h (2 Bft) NW 315 15,1 C 24,6 C 6,0 km/h (2 Bft)
08.07.2013 14:15 24,6 C 55 % 1029,2 hPa 0,0 l/m 6,1 km/h (2 Bft) N 360 14,9 C 25,4 C 8,7 km/h (2 Bft)
08.07.2013 14:20 23,9 C 57 % 1029,2 hPa 0,0 l/m 5,3 km/h (1 Bft) O-NO 67 14,9 C 25,8 C 13,5 km/h (3 Bft)
08.07.2013 14:25 23,0 C 57 % 1029,2 hPa 0,0 l/m 5,3 km/h (1 Bft) O 90 14,0 C 25,6 C 4,3 km/h (1 Bft)
08.07.2013 14:30 22,6 C 59 % 1029,2 hPa 0,0 l/m 6,3 km/h (2 Bft) N-NW 337 14,2 C 24,8 C 10,9 km/h (2 Bft)
08.07.2013 14:35 23,6 C 58 % 1029,2 hPa 0,0 l/m 6,6 km/h (2 Bft) W-NW 292 14,8 C 24,7 C 4,7 km/h (1 Bft)
08.07.2013 14:40 24,4 C 54 % 1029,2 hPa 0,0 l/m 6,8 km/h (2 Bft) W-NW 292 14,5 C 25,3 C 6,9 km/h (2 Bft)
08.07.2013 14:45 24,2 C 55 % 1029,2 hPa 0,0 l/m 5,6 km/h (1 Bft) NW 315 14,6 C 26,0 C 5,0 km/h (1 Bft)
08.07.2013 14:50 22,7 C 59 % 1029,2 hPa 0,0 l/m 4,8 km/h (1 Bft) S-SW 202 14,3 C 25,6 C 15,0 km/h (3 Bft)
08.07.2013 14:55 23,0 C 57 % 1029,2 hPa 0,0 l/m 6,0 km/h (2 Bft) N-NW 337 14,0 C 24,8 C 5,3 km/h (1 Bft)
08.07.2013 15:00 23,6 C 57 % 1029,2 hPa 0,0 l/m 6,9 km/h (2 Bft) N-NO 22 14,6 C 24,8 C 7,4 km/h (2 Bft)
08.07.2013 15:05 23,8 C 57 % 1029,2 hPa 0,0 l/m 6,1 km/h (2 Bft) N-NW 337 14,8 C 25,1 C 9,3 km/h (2 Bft)
08.07.2013 15:10 23,7 C 56 % 1029,2 hPa 0,0 l/m 6,9 km/h (2 Bft) N 360 14,4 C 24,9 C 9,0 km/h (2 Bft)
08.07.2013 15:15 24,2 C 55 % 1029,2 hPa 0,0 l/m 7,6 km/h (2 Bft) NW 315 14,6 C 24,8 C 7,2 km/h (2 Bft)
08.07.2013 15:20 24,1 C 53 % 1029,2 hPa 0,0 l/m 6,8 km/h (2 Bft) W-NW 292 13,9 C 25,5 C 10,3 km/h (2 Bft)
08.07.2013 15:25 24,1 C 55 % 1029,0 hPa 0,0 l/m 6,9 km/h (2 Bft) NO 45 14,5 C 25,4 C 10,5 km/h (2 Bft)
08.07.2013 15:30 23,4 C 56 % 1029,0 hPa 0,0 l/m 7,2 km/h (2 Bft) W-NW 292 14,1 C 25,0 C 10,6 km/h (2 Bft)
08.07.2013 15:35 23,0 C 57 % 1029,0 hPa 0,0 l/m 6,9 km/h (2 Bft) W-NW 292 14,0 C 24,9 C 10,1 km/h (2 Bft)
08.07.2013 15:40 23,2 C 58 % 1029,0 hPa 0,0 l/m 6,6 km/h (2 Bft) N-NW 337 14,5 C 24,5 C 7,4 km/h (2 Bft)
08.07.2013 15:45 24,1 C 56 % 1028,9 hPa 0,0 l/m 6,6 km/h (2 Bft) S-SO 157 14,8 C 24,7 C 12,4 km/h (3 Bft)
08.07.2013 15:50 23,9 C 53 % 1028,9 hPa 0,0 l/m 6,4 km/h (2 Bft) N 360 13,7 C 25,5 C 9,3 km/h (2 Bft)
08.07.2013 15:55 23,9 C 55 % 1028,9 hPa 0,0 l/m 6,6 km/h (2 Bft) W-NW 292 14,3 C 25,6 C 7,2 km/h (2 Bft)
08.07.2013 16:00 25,0 C 53 % 1028,9 hPa 0,0 l/m 5,8 km/h (2 Bft) W 270 14,7 C 26,4 C 9,2 km/h (2 Bft)
08.07.2013 16:05 24,7 C 50 % 1028,8 hPa 0,0 l/m 6,0 km/h (2 Bft) W-NW 292 13,6 C 26,8 C 10,1 km/h (2 Bft)
08.07.2013 16:10 24,0 C 51 % 1028,8 hPa 0,0 l/m 7,6 km/h (2 Bft) W-NW 292 13,2 C 26,8 C 13,2 km/h (3 Bft)
08.07.2013 16:15 24,1 C 53 % 1028,8 hPa 0,0 l/m 7,2 km/h (2 Bft) N-NO 22 13,9 C 26,5 C 8,2 km/h (2 Bft)
08.07.2013 16:20 24,4 C 52 % 1028,8 hPa 0,0 l/m 6,3 km/h (2 Bft) NO 45 13,9 C 27,1 C 5,0 km/h (1 Bft)
08.07.2013 16:25 24,2 C 53 % 1028,5 hPa 0,0 l/m 5,0 km/h (1 Bft) W-NW 292 14,0 C 27,1 C 4,5 km/h (1 Bft)
08.07.2013 16:30 23,0 C 56 % 1028,5 hPa 0,0 l/m 5,1 km/h (1 Bft) W-SW 247 13,7 C 26,0 C 7,2 km/h (2 Bft)
08.07.2013 16:35 22,9 C 58 % 1028,5 hPa 0,0 l/m 5,3 km/h (1 Bft) N-NW 337 14,2 C 24,7 C 3,4 km/h (1 Bft)
08.07.2013 16:40 22,5 C 58 % 1028,5 hPa 0,0 l/m 4,7 km/h (1 Bft) W-NW 292 13,8 C 24,0 C 7,7 km/h (2 Bft)
08.07.2013 16:45 22,3 C 58 % 1028,1 hPa 0,0 l/m 5,0 km/h (1 Bft) W-SW 247 13,6 C 23,5 C 6,0 km/h (2 Bft)
08.07.2013 16:50 22,3 C 58 % 1028,1 hPa 0,0 l/m 4,8 km/h (1 Bft) N-NW 337 13,6 C 23,3 C 6,1 km/h (2 Bft)
08.07.2013 16:55 22,7 C 59 % 1028,1 hPa 0,0 l/m 4,3 km/h (1 Bft) N-NO 22 14,3 C 23,3 C 4,7 km/h (1 Bft)
08.07.2013 17:00 22,5 C 58 % 1028,1 hPa 0,0 l/m 4,5 km/h (1 Bft) W-SW 247 13,8 C 23,8 C 7,2 km/h (2 Bft)
08.07.2013 17:05 22,4 C 59 % 1028,2 hPa 0,0 l/m 4,7 km/h (1 Bft) W-NW 292 14,0 C 23,7 C 8,7 km/h (2 Bft)
08.07.2013 17:10 21,9 C 59 % 1028,2 hPa 0,0 l/m 4,8 km/h (1 Bft) N-NW 337 13,5 C 23,3 C 6,6 km/h (2 Bft)
08.07.2013 17:15 21,9 C 60 % 1028,2 hPa 0,0 l/m 4,2 km/h (1 Bft) N-NO 22 13,8 C 23,1 C 6,3 km/h (2 Bft)
08.07.2013 17:20 22,0 C 61 % 1028,2 hPa 0,0 l/m 3,1 km/h (1 Bft) O 90 14,1 C 23,0 C 2,6 km/h (1 Bft)
08.07.2013 17:25 22,2 C 61 % 1027,9 hPa 0,0 l/m 3,7 km/h (1 Bft) N-NW 337 14,3 C 23,2 C 4,2 km/h (1 Bft)
08.07.2013 17:30 22,3 C 58 % 1027,9 hPa 0,0 l/m 3,4 km/h (1 Bft) S-SW 202 13,6 C 23,5 C 5,8 km/h (2 Bft)
08.07.2013 17:35 22,3 C 57 % 1027,9 hPa 0,0 l/m 4,5 km/h (1 Bft) O-SO 112 13,4 C 23,6 C 6,6 km/h (2 Bft)
08.07.2013 17:40 22,6 C 58 % 1027,9 hPa 0,0 l/m 5,5 km/h (1 Bft) W-NW 292 13,9 C 23,7 C 9,8 km/h (2 Bft)
08.07.2013 17:45 22,5 C 57 % 1028,2 hPa 0,0 l/m 5,3 km/h (1 Bft) NW 315 13,5 C 23,7 C 6,8 km/h (2 Bft)
08.07.2013 17:50 22,4 C 57 % 1028,2 hPa 0,0 l/m 5,6 km/h (1 Bft) W-NW 292 13,5 C 23,7 C 7,2 km/h (2 Bft)
08.07.2013 17:55 22,5 C 58 % 1028,2 hPa 0,0 l/m 5,5 km/h (1 Bft) N-NW 337 13,8 C 23,7 C 4,7 km/h (1 Bft)
08.07.2013 18:00 22,3 C 58 % 1028,2 hPa 0,0 l/m 4,0 km/h (1 Bft) N 360 13,6 C 23,5 C 3,7 km/h (1 Bft)
08.07.2013 18:05 22,1 C 58 % 1027,9 hPa 0,0 l/m 3,7 km/h (1 Bft) N 360 13,4 C 23,4 C 6,0 km/h (2 Bft)
08.07.2013 18:10 21,8 C 59 % 1027,9 hPa 0,0 l/m 3,4 km/h (1 Bft) N-NO 22 13,4 C 23,0 C 0,0 km/h (0 Bft)
08.07.2013 18:15 21,5 C 61 % 1027,9 hPa 0,0 l/m 2,7 km/h (1 Bft) NW 315 13,7 C 22,9 C 4,0 km/h (1 Bft)
08.07.2013 18:20 21,2 C 61 % 1027,9 hPa 0,0 l/m 2,1 km/h (1 Bft) SW 225 13,4 C 22,5 C 7,4 km/h (2 Bft)
08.07.2013 18:25 21,2 C 63 % 1027,8 hPa 0,0 l/m 2,7 km/h (1 Bft) W-NW 292 13,9 C 22,3 C 7,6 km/h (2 Bft)
08.07.2013 18:30 21,1 C 61 % 1027,8 hPa 0,0 l/m 3,4 km/h (1 Bft) W-NW 292 13,3 C 22,0 C 6,1 km/h (2 Bft)
08.07.2013 18:35 21,0 C 62 % 1027,8 hPa 0,0 l/m 3,5 km/h (1 Bft) N 360 13,4 C 21,9 C 5,3 km/h (1 Bft)
08.07.2013 18:40 20,7 C 63 % 1027,8 hPa 0,0 l/m 1,9 km/h (1 Bft) W 270 13,4 C 21,6 C 0,0 km/h (0 Bft)
08.07.2013 18:45 20,6 C 64 % 1027,5 hPa 0,0 l/m 0,8 km/h (0 Bft) N 360 13,5 C 21,5 C 0,0 km/h (0 Bft)
08.07.2013 18:50 20,3 C 65 % 1027,5 hPa 0,0 l/m 0,5 km/h (0 Bft) N-NW 337 13,5 C 21,2 C 4,3 km/h (1 Bft)
08.07.2013 18:55 20,3 C 65 % 1027,5 hPa 0,0 l/m 1,1 km/h (1 Bft) N-NW 337 13,5 C 21,1 C 2,6 km/h (1 Bft)
08.07.2013 19:00 20,1 C 65 % 1027,5 hPa 0,0 l/m 1,6 km/h (1 Bft) S 180 13,3 C 21,0 C 2,4 km/h (1 Bft)
08.07.2013 19:05 20,0 C 66 % 1027,6 hPa 0,0 l/m 1,1 km/h (1 Bft) N-NO 22 13,4 C 20,9 C 2,6 km/h (1 Bft)
08.07.2013 19:10 19,8 C 67 % 1027,6 hPa 0,0 l/m 1,1 km/h (1 Bft) NW 315 13,5 C 20,7 C 1,6 km/h (1 Bft)
08.07.2013 19:15 19,8 C 67 % 1027,6 hPa 0,0 l/m 1,0 km/h (0 Bft) SO 135 13,5 C 20,6 C 0,0 km/h (0 Bft)
08.07.2013 19:20 19,8 C 67 % 1027,6 hPa 0,0 l/m 1,4 km/h (1 Bft) N-NO 22 13,5 C 20,5 C 4,8 km/h (1 Bft)
08.07.2013 19:25 19,8 C 67 % 1027,3 hPa 0,0 l/m 1,8 km/h (1 Bft) N-NW 337 13,5 C 20,4 C 0,0 km/h (0 Bft)
08.07.2013 19:30 19,7 C 67 % 1027,3 hPa 0,0 l/m 1,4 km/h (1 Bft) N-NO 22 13,4 C 20,3 C 2,6 km/h (1 Bft)
08.07.2013 19:35 19,6 C 67 % 1027,3 hPa 0,0 l/m 0,8 km/h (0 Bft) N-NO 22 13,3 C 20,1 C 0,0 km/h (0 Bft)
08.07.2013 19:40 19,4 C 68 % 1027,3 hPa 0,0 l/m 0,6 km/h (0 Bft) NO 45 13,3 C 20,0 C 1,6 km/h (1 Bft)
08.07.2013 19:45 19,4 C 67 % 1027,5 hPa 0,0 l/m 0,6 km/h (0 Bft) N-NO 22 13,1 C 19,9 C 0,0 km/h (0 Bft)
08.07.2013 19:50 19,4 C 67 % 1027,5 hPa 0,0 l/m 0,8 km/h (0 Bft) N-NO 22 13,1 C 19,9 C 0,0 km/h (0 Bft)
08.07.2013 19:55 19,3 C 67 % 1027,5 hPa 0,0 l/m 0,6 km/h (0 Bft) O-NO 67 13,0 C 19,8 C 0,0 km/h (0 Bft)
08.07.2013 20:00 19,3 C 68 % 1027,5 hPa 0,0 l/m 1,0 km/h (0 Bft) N-NW 337 13,2 C 19,8 C 1,6 km/h (1 Bft)
08.07.2013 20:05 19,2 C 69 % 1027,7 hPa 0,0 l/m 1,0 km/h (0 Bft) N 360 13,4 C 19,8 C 0,0 km/h (0 Bft)
08.07.2013 20:10 19,3 C 68 % 1027,7 hPa 0,0 l/m 1,3 km/h (1 Bft) N 360 13,2 C 19,7 C 2,6 km/h (1 Bft)
08.07.2013 20:15 19,3 C 68 % 1027,7 hPa 0,0 l/m 1,4 km/h (1 Bft) NO 45 13,2 C 19,7 C 1,8 km/h (1 Bft)
08.07.2013 20:20 19,2 C 68 % 1027,7 hPa 0,0 l/m 0,6 km/h (0 Bft) N-NW 337 13,1 C 19,7 C 1,9 km/h (1 Bft)
08.07.2013 20:25 19,2 C 68 % 1027,8 hPa 0,0 l/m 0,6 km/h (0 Bft) O 90 13,1 C 19,7 C 2,3 km/h (1 Bft)
08.07.2013 20:30 19,1 C 68 % 1027,8 hPa 0,0 l/m 0,5 km/h (0 Bft) N-NO 22 13,1 C 19,5 C 0,0 km/h (0 Bft)
08.07.2013 20:35 19,1 C 68 % 1027,8 hPa 0,0 l/m 0,3 km/h (0 Bft) W 270 13,1 C 19,5 C 0,0 km/h (0 Bft)
08.07.2013 20:40 18,7 C 70 % 1027,8 hPa 0,0 l/m 1,0 km/h (0 Bft) N-NW 337 13,1 C 19,3 C 3,1 km/h (1 Bft)
08.07.2013 20:45 18,6 C 69 % 1027,7 hPa 0,0 l/m 1,1 km/h (1 Bft) N-NW 337 12,8 C 19,2 C 2,4 km/h (1 Bft)
08.07.2013 20:50 18,6 C 69 % 1027,7 hPa 0,0 l/m 1,0 km/h (0 Bft) O-SO 112 12,8 C 19,2 C 1,9 km/h (1 Bft)
08.07.2013 20:55 18,6 C 69 % 1027,7 hPa 0,0 l/m 1,1 km/h (1 Bft) O-NO 67 12,8 C 19,2 C 2,9 km/h (1 Bft)
08.07.2013 21:00 18,3 C 69 % 1027,7 hPa 0,0 l/m 1,6 km/h (1 Bft) NO 45 12,5 C 18,9 C 1,8 km/h (1 Bft)
08.07.2013 21:05 18,1 C 69 % 1027,8 hPa 0,0 l/m 1,9 km/h (1 Bft) O 90 12,3 C 18,6 C 2,1 km/h (1 Bft)
08.07.2013 21:10 17,9 C 70 % 1027,8 hPa 0,0 l/m 1,8 km/h (1 Bft) O-NO 67 12,3 C 18,2 C 3,4 km/h (1 Bft)
08.07.2013 21:15 17,9 C 69 % 1027,8 hPa 0,0 l/m 1,8 km/h (1 Bft) NO 45 12,1 C 18,0 C 3,1 km/h (1 Bft)
08.07.2013 21:20 17,8 C 70 % 1027,8 hPa 0,0 l/m 2,1 km/h (1 Bft) NO 45 12,3 C 17,8 C 0,0 km/h (0 Bft)
08.07.2013 21:25 17,7 C 70 % 1027,9 hPa 0,0 l/m 1,8 km/h (1 Bft) NO 45 12,2 C 17,7 C 2,7 km/h (1 Bft)
08.07.2013 21:30 17,5 C 70 % 1027,9 hPa 0,0 l/m 1,4 km/h (1 Bft) O 90 12,0 C 17,4 C 1,8 km/h (1 Bft)
08.07.2013 21:35 17,3 C 71 % 1027,9 hPa 0,0 l/m 1,1 km/h (1 Bft) O 90 12,0 C 17,3 C 1,6 km/h (1 Bft)
08.07.2013 21:40 16,8 C 72 % 1027,9 hPa 0,0 l/m 0,5 km/h (0 Bft) NO 45 11,7 C 16,9 C 0,0 km/h (0 Bft)
08.07.2013 21:45 16,8 C 73 % 1028,0 hPa 0,0 l/m 0,2 km/h (0 Bft) O 90 11,9 C 16,7 C 0,0 km/h (0 Bft)
08.07.2013 21:50 16,4 C 74 % 1028,0 hPa 0,0 l/m 0,2 km/h (0 Bft) NO 45 11,8 C 16,4 C 0,0 km/h (0 Bft)
08.07.2013 21:55 16,2 C 74 % 1028,0 hPa 0,0 l/m 0,0 km/h (0 Bft) O 90 11,6 C 16,2 C 0,0 km/h (0 Bft)
08.07.2013 22:00 16,2 C 75 % 1028,0 hPa 0,0 l/m 0,0 km/h (0 Bft) O-NO 67 11,8 C 15,9 C 0,0 km/h (0 Bft)
08.07.2013 22:05 16,0 C 75 % 1027,9 hPa 0,0 l/m 0,0 km/h (0 Bft) O 90 11,6 C 15,8 C 0,0 km/h (0 Bft)
08.07.2013 22:10 16,0 C 75 % 1027,9 hPa 0,0 l/m 0,0 km/h (0 Bft) O-NO 67 11,6 C 15,6 C 0,0 km/h (0 Bft)
08.07.2013 22:15 16,2 C 76 % 1027,9 hPa 0,0 l/m 0,0 km/h (0 Bft) NO 45 12,0 C 15,5 C 1,8 km/h (1 Bft)
08.07.2013 22:20 15,9 C 77 % 1027,9 hPa 0,0 l/m 0,2 km/h (0 Bft) S 180 11,9 C 15,6 C 0,0 km/h (0 Bft)
08.07.2013 22:25 15,9 C 77 % 1028,1 hPa 0,0 l/m 0,2 km/h (0 Bft) O-SO 112 11,9 C 15,5 C 0,0 km/h (0 Bft)
08.07.2013 22:30 16,2 C 77 % 1028,1 hPa 0,0 l/m 0,0 km/h (0 Bft) O 90 12,2 C 15,5 C 0,0 km/h (0 Bft)
08.07.2013 22:35 16,1 C 77 % 1028,1 hPa 0,0 l/m 0,2 km/h (0 Bft) NO 45 12,1 C 15,5 C 0,0 km/h (0 Bft)
08.07.2013 22:40 15,5 C 78 % 1028,1 hPa 0,0 l/m 0,0 km/h (0 Bft) N-NW 337 11,7 C 15,3 C 0,0 km/h (0 Bft)
08.07.2013 22:45 15,3 C 78 % 1028,0 hPa 0,0 l/m 0,0 km/h (0 Bft) N-NW 337 11,5 C 15,1 C 0,0 km/h (0 Bft)
08.07.2013 22:50 15,2 C 79 % 1028,0 hPa 0,0 l/m 0,0 km/h (0 Bft) W-NW 292 11,6 C 14,9 C 0,0 km/h (0 Bft)
08.07.2013 22:55 15,2 C 79 % 1028,0 hPa 0,0 l/m 0,0 km/h (0 Bft) N 360 11,6 C 14,8 C 0,0 km/h (0 Bft)
08.07.2013 23:00 15,1 C 79 % 1028,0 hPa 0,0 l/m 0,0 km/h (0 Bft) N-NO 22 11,5 C 14,8 C 0,0 km/h (0 Bft)
08.07.2013 23:05 15,1 C 79 % 1027,8 hPa 0,0 l/m 0,0 km/h (0 Bft) NO 45 11,5 C 14,7 C 0,0 km/h (0 Bft)
08.07.2013 23:10 15,0 C 80 % 1027,8 hPa 0,0 l/m 0,0 km/h (0 Bft) N-NO 22 11,6 C 14,7 C 0,0 km/h (0 Bft)
08.07.2013 23:15 15,1 C 80 % 1027,8 hPa 0,0 l/m 0,2 km/h (0 Bft) NW 315 11,7 C 14,8 C 0,0 km/h (0 Bft)
08.07.2013 23:20 14,9 C 80 % 1027,8 hPa 0,0 l/m 0,2 km/h (0 Bft) O-NO 67 11,5 C 14,6 C 0,0 km/h (0 Bft)
08.07.2013 23:25 14,9 C 80 % 1027,6 hPa 0,0 l/m 0,0 km/h (0 Bft) O 90 11,5 C 14,6 C 0,0 km/h (0 Bft)
08.07.2013 23:30 14,6 C 81 % 1027,6 hPa 0,0 l/m 0,0 km/h (0 Bft) NO 45 11,4 C 14,5 C 0,0 km/h (0 Bft)
08.07.2013 23:35 14,5 C 81 % 1027,6 hPa 0,0 l/m 0,0 km/h (0 Bft) NO 45 11,3 C 14,3 C 0,0 km/h (0 Bft)
08.07.2013 23:40 14,5 C 81 % 1027,6 hPa 0,0 l/m 0,0 km/h (0 Bft) NO 45 11,3 C 14,2 C 0,0 km/h (0 Bft)
08.07.2013 23:45 14,7 C 81 % 1027,6 hPa 0,0 l/m 0,3 km/h (0 Bft) O-SO 112 11,5 C 14,2 C 0,0 km/h (0 Bft)
08.07.2013 23:50 14,9 C 81 % 1027,6 hPa 0,0 l/m 0,3 km/h (0 Bft) O-NO 67 11,7 C 14,3 C 0,0 km/h (0 Bft)
08.07.2013 23:55 14,9 C 80 % 1027,6 hPa 0,0 l/m 0,0 km/h (0 Bft) O-SO 112 11,5 C 14,2 C 0,0 km/h (0 Bft)
_ Min-Zeit 05:00 16:05 19:40 - 23:55 - - 05:00 04:55 23:55
Minimum _ 11,3 C 50 % 1027,3 hPa - 0,0 km/h (0 Bft) - - 10,0 C 11,1 C 0,0 km/h (0 Bft)
_ Max-Zeit 16:00 06:30 14:00 23:55 16:10 - - 12:40 16:25 13:50
Maximum _ 25,0 C 93 % 1029,8 hPa 0,0 l/m 7,6 km/h
W-NW (2 Bft)
- - 15,7 C 27,1 C 20,9 km/h
W-NW (4 Bft)
Durchschnitt _ 17,7 C 75 % 1028,5 hPa #0,0 l/m 2,3 km/h (1 Bft) W-NW - 13,0 C 18,2 C 3,3 km/h (1 Bft)